timestamp,surface_pressure_avg,surface_temp_avg,battery_voltage,lat,long
2021-12-25 00:09:00+00:00,291.868,4.1,12.65,47.84626,-54.09684
2021-12-25 00:19:01+00:00,295.3081,4.1,12.65,47.84626,-54.09684
2021-12-25 00:29:01+00:00,299.718,4.1,12.65,47.84626,-54.09684
2021-12-25 00:39:01+00:00,308.058,4.1,12.65,47.84626,-54.09684
2021-12-25 00:49:01+00:00,314.588,4.1,12.65,47.84626,-54.09684
2021-12-25 00:59:01+00:00,317.2563,4.1,12.65,47.84626,-54.09684
2021-12-25 01:09:01+00:00,318.208,4.09,12.65,47.84626,-54.09684
2021-12-25 01:19:00+00:00,325.5646,4.05,12.65,47.84626,-54.09684
2021-12-25 01:29:00+00:00,330.5714,4.0,12.65,47.84626,-54.09684
2021-12-25 01:39:00+00:00,331.4947,4.0,12.65,47.84626,-54.09684
2021-12-25 01:49:00+00:00,331.9747,4.0,12.65,47.84626,-54.09684
2021-12-25 01:59:00+00:00,338.4213,4.0,12.65,47.84626,-54.09684
2021-12-25 02:09:00+00:00,339.8779,4.0,12.65,47.84626,-54.09684
2021-12-25 02:19:01+00:00,340.7581,4.0,12.65,47.84626,-54.09684
2021-12-25 02:29:01+00:00,345.37800000000016,4.0,12.65,47.84626,-54.09684
2021-12-25 02:39:01+00:00,347.0996,4.0,12.65,47.84626,-54.09684
2021-12-25 02:49:01+00:00,348.0047,4.0,12.65,47.84626,-54.09684
2021-12-25 02:59:01+00:00,350.173,4.0,12.65,47.84626,-54.09684
2021-12-25 03:09:01+00:00,352.3395,4.08,12.65,47.84626,-54.09684
2021-12-25 03:19:00+00:00,351.223,4.1,12.65,47.84626,-54.09684
2021-12-25 03:29:00+00:00,350.7613,4.1,12.65,47.84626,-54.09684
2021-12-25 03:39:00+00:00,353.723,4.1,12.65,47.84626,-54.09684
2021-12-25 03:49:00+00:00,354.0063,4.1,12.65,47.84626,-54.09684
2021-12-25 03:59:00+00:00,354.36300000000006,4.11,12.65,47.84626,-54.09684
2021-12-25 04:09:00+00:00,358.3246,4.11,12.65,47.84626,-54.09684
2021-12-25 04:19:00+00:00,359.4763,4.1,12.65,47.84626,-54.09684
2021-12-25 04:29:00+00:00,354.7296,4.1,12.65,47.84626,-54.09684
2021-12-25 04:39:00+00:00,352.1646,4.1,12.65,47.84626,-54.09684
2021-12-25 04:49:00+00:00,354.3645,4.1,12.65,47.84626,-54.09684
2021-12-25 04:59:00+00:00,350.82300000000015,4.1,12.65,47.84626,-54.09684
2021-12-25 05:09:00+00:00,344.7079,4.1,12.65,47.84626,-54.09684
2021-12-25 05:19:00+00:00,343.9846,4.1,12.57,47.84626,-54.09684
2021-12-25 05:29:00+00:00,345.9545,4.08,12.57,47.84626,-54.09684
2021-12-25 05:39:00+00:00,338.783,4.0,12.57,47.84626,-54.09684
2021-12-25 05:49:00+00:00,336.8297,4.0,12.57,47.84626,-54.09684
2021-12-25 05:59:00+00:00,333.9362,4.0,12.57,47.84626,-54.09684
2021-12-25 06:09:00+00:00,326.3547,4.0,12.57,47.84626,-54.09684
2021-12-25 06:19:00+00:00,321.0247,4.0,12.57,47.84626,-54.09684
2021-12-25 06:29:00+00:00,319.993,4.0,12.57,47.84626,-54.09684
2021-12-25 06:39:00+00:00,314.938,3.9,12.57,47.84626,-54.09684
2021-12-25 06:49:00+00:00,303.8563,3.9,12.57,47.84626,-54.09684
2021-12-25 06:59:00+00:00,298.7847,3.8,12.57,47.84626,-54.09684
2021-12-25 07:09:00+00:00,297.0797,3.8,12.57,47.84626,-54.09684
2021-12-25 07:19:00+00:00,288.3047,3.7,12.57,47.84626,-54.09684
2021-12-25 07:29:00+00:00,278.6481,3.8,12.57,47.84626,-54.09684
2021-12-25 07:39:00+00:00,274.9264,3.8,12.57,47.84626,-54.09684
2021-12-25 07:49:00+00:00,272.1047,3.8,12.57,47.84626,-54.09684
2021-12-25 07:59:00+00:00,263.0448,3.79,12.57,47.84626,-54.09684
2021-12-25 08:09:00+00:00,254.1114,3.75,12.57,47.84626,-54.09684
2021-12-25 08:19:01+00:00,253.7131,3.73,12.57,47.84626,-54.09684
2021-12-25 08:29:01+00:00,253.9181,3.75,12.57,47.84626,-54.09684
2021-12-25 08:39:01+00:00,248.3797,3.7,12.57,47.84626,-54.09684
2021-12-25 08:49:01+00:00,244.808,3.7,12.57,47.84626,-54.09684
2021-12-25 08:59:01+00:00,249.0298,3.7,12.57,47.84626,-54.09684
2021-12-25 09:09:01+00:00,250.0565,3.7,12.57,47.84626,-54.09684
2021-12-25 09:19:00+00:00,246.0448,3.7,12.57,47.84626,-54.09684
2021-12-25 09:29:00+00:00,245.1714,3.7,12.57,47.84626,-54.09684
2021-12-25 09:39:00+00:00,249.6464,3.7,12.57,47.84626,-54.09684
2021-12-25 09:49:00+00:00,250.5747,3.7,12.57,47.84626,-54.09684
2021-12-25 09:59:00+00:00,248.5814,3.7,12.57,47.84626,-54.09684
2021-12-25 10:09:00+00:00,248.6214,3.7,12.57,47.84626,-54.09684
2021-12-25 10:19:00+00:00,251.1248,3.7,12.57,47.84626,-54.09684
2021-12-25 10:29:00+00:00,252.2147,3.7,12.57,47.84626,-54.09684
2021-12-25 10:39:00+00:00,254.5514,3.7,12.57,47.84626,-54.09684
2021-12-25 10:49:00+00:00,260.9814,3.7,12.57,47.84626,-54.09684
2021-12-25 10:59:00+00:00,268.8347,3.7,12.57,47.84626,-54.09684
2021-12-25 11:09:00+00:00,274.9397,3.7,12.57,47.84626,-54.09684
2021-12-25 11:19:00+00:00,278.8464,3.7,12.57,47.84626,-54.09684
2021-12-25 11:29:00+00:00,281.2614,3.7,12.57,47.84626,-54.09684
2021-12-25 11:39:00+00:00,282.3064,3.69,12.57,47.84626,-54.09684
2021-12-25 11:49:00+00:00,285.5131,3.6,12.57,47.84626,-54.09684
2021-12-25 11:59:00+00:00,291.8947,3.63,12.57,47.84626,-54.09684
2021-12-25 12:09:00+00:00,293.9363,3.6,12.57,47.84626,-54.09684
2021-12-25 12:19:01+00:00,289.8414,3.6,13.13,47.84626,-54.09684
2021-12-25 12:29:01+00:00,295.1081,3.6,13.13,47.84626,-54.09684
2021-12-25 12:39:01+00:00,302.7064,3.6,13.13,47.84626,-54.09684
2021-12-25 12:49:01+00:00,299.948,3.6,13.13,47.84626,-54.09684
2021-12-25 12:59:01+00:00,301.2014,3.6,13.13,47.84626,-54.09684
2021-12-25 13:09:01+00:00,313.4614,3.6,13.13,47.84626,-54.09684
2021-12-25 13:19:01+00:00,319.868,3.6,13.92,47.84626,-54.09684
2021-12-25 13:29:01+00:00,317.168,3.6,13.92,47.84626,-54.09684
2021-12-25 13:39:01+00:00,324.293,3.6,13.92,47.84626,-54.09684
2021-12-25 13:49:01+00:00,335.778,3.37,13.92,47.84626,-54.09684
2021-12-25 13:59:01+00:00,337.9647,2.8,13.92,47.84626,-54.09684
2021-12-25 14:09:01+00:00,340.173,2.7,13.92,47.84626,-54.09684
2021-12-25 14:19:00+00:00,347.6313,2.75,14.72,47.84626,-54.09684
2021-12-25 14:29:00+00:00,350.2579,2.81,14.72,47.84626,-54.09684
2021-12-25 14:39:00+00:00,349.1663,3.01,14.72,47.84626,-54.09684
2021-12-25 14:49:00+00:00,350.9763,3.19,14.72,47.84626,-54.09684
2021-12-25 14:59:00+00:00,356.9879,3.21,14.72,47.84626,-54.09684
2021-12-25 15:09:00+00:00,358.3414,3.25,14.72,47.84626,-54.09684
2021-12-25 15:19:00+00:00,362.3729,3.2,14.4,47.84626,-54.09684
2021-12-25 15:29:00+00:00,365.5713,3.2,14.4,47.84626,-54.09684
2021-12-25 15:39:00+00:00,365.1096,3.39,14.4,47.84626,-54.09684
2021-12-25 15:49:00+00:00,364.7363,3.43,14.4,47.84626,-54.09684
2021-12-25 15:59:00+00:00,368.2646,3.3,14.4,47.84626,-54.09684
2021-12-25 16:09:00+00:00,365.5413,3.1,14.4,47.84626,-54.09684
2021-12-25 16:19:00+00:00,361.348,3.0,14.56,47.84626,-54.09684
2021-12-25 16:29:00+00:00,359.398,3.0,14.56,47.84626,-54.09684
2021-12-25 16:39:00+00:00,359.8229,3.0,14.56,47.84626,-54.09684
2021-12-25 16:49:00+00:00,358.18300000000005,3.07,14.56,47.84626,-54.09684
2021-12-25 16:59:00+00:00,357.4914,3.27,14.56,47.84626,-54.09684
2021-12-25 17:09:00+00:00,357.3646,3.42,14.56,47.84626,-54.09684
2021-12-25 17:19:00+00:00,354.533,3.49,14.32,47.84626,-54.09684
2021-12-25 17:29:00+00:00,351.7047,3.5,14.32,47.84626,-54.09684
2021-12-25 17:39:00+00:00,347.63800000000015,3.5,14.32,47.84626,-54.09684
2021-12-25 17:49:00+00:00,341.4996,3.5,14.32,47.84626,-54.09684
2021-12-25 17:59:00+00:00,334.7496,3.5,14.32,47.84626,-54.09684
2021-12-25 18:09:00+00:00,327.183,3.5,14.32,47.84626,-54.09684
2021-12-25 18:19:00+00:00,324.58799999999997,3.5,14.16,47.84626,-54.09684
2021-12-25 18:29:00+00:00,318.373,3.5,14.16,47.84626,-54.09684
2021-12-25 18:39:00+00:00,310.0997,3.5,14.16,47.84626,-54.09684
2021-12-25 18:49:00+00:00,303.7747,3.3,14.16,47.84626,-54.09684
2021-12-25 18:59:00+00:00,298.58799999999997,3.1,14.16,47.84626,-54.09684
2021-12-25 19:09:00+00:00,294.7331,3.1,14.16,47.84626,-54.09684
2021-12-25 19:19:00+00:00,291.0314,3.1,13.92,47.84626,-54.09684
2021-12-25 19:29:00+00:00,281.358,3.1,13.92,47.84626,-54.09684
2021-12-25 19:39:00+00:00,268.8831,3.1,13.92,47.84626,-54.09684
2021-12-25 19:49:00+00:00,265.9531,3.11,13.92,47.84626,-54.09684
2021-12-25 19:59:00+00:00,265.9014,3.2,13.92,47.84626,-54.09684
2021-12-25 20:09:00+00:00,259.8748,3.2,13.92,47.84626,-54.09684
2021-12-25 20:19:00+00:00,255.7081,3.2,13.44,47.84626,-54.09684
2021-12-25 20:29:00+00:00,256.8698,3.2,13.44,47.84626,-54.09684
2021-12-25 20:39:00+00:00,252.8848,3.2,13.44,47.84626,-54.09684
2021-12-25 20:49:00+00:00,245.4581,3.2,13.44,47.84626,-54.09684
2021-12-25 20:59:00+00:00,243.1614,3.2,13.44,47.84626,-54.09684
2021-12-25 21:09:00+00:00,243.6414,3.2,13.44,47.84626,-54.09684
2021-12-25 21:19:00+00:00,245.5048,3.2,13.13,47.84626,-54.09684
2021-12-25 21:29:00+00:00,245.2247,3.2,13.13,47.84626,-54.09684
2021-12-25 21:39:00+00:00,247.5614,3.2,13.13,47.84626,-54.09684
2021-12-25 21:49:00+00:00,248.7881,3.23,13.13,47.84626,-54.09684
2021-12-25 21:59:00+00:00,250.6598,3.23,13.13,47.84626,-54.09684
2021-12-25 22:09:00+00:00,252.7115,3.25,13.13,47.84626,-54.09684
2021-12-25 22:19:00+00:00,255.4014,3.2,12.81,47.84626,-54.09684
2021-12-25 22:29:00+00:00,257.9748,3.2,12.81,47.84626,-54.09684
2021-12-25 22:39:00+00:00,260.4814,3.2,12.81,47.84626,-54.09684
2021-12-25 22:49:00+00:00,261.2564,3.2,12.81,47.84626,-54.09684
2021-12-25 22:59:00+00:00,258.8281,3.2,12.81,47.84626,-54.09684
2021-12-25 23:09:00+00:00,263.1264,3.19,12.81,47.84626,-54.09684
2021-12-25 23:19:00+00:00,272.9064,3.15,12.65,47.84626,-54.09684
2021-12-25 23:29:00+00:00,273.8648,3.0,12.65,47.84626,-54.09684
2021-12-25 23:39:00+00:00,271.2964,2.95,12.65,47.84626,-54.09684
2021-12-25 23:49:00+00:00,274.1714,2.99,12.65,47.84626,-54.09684
2021-12-25 23:59:00+00:00,276.9731,3.1,12.65,47.84626,-54.09684
